Date String (YYYY-MM-DD hh:mm:ss) UTC,Instrument flags,Ambient pressure (hPa),Sample flow (lpm),Bypass flow (lpm),Sample temperature (°C),Ambient temperature (°C),ASC tube jacket temperature (°C),LED temperature (°C),Box temperature (°C),Sample RH (%),Span deviation,Mass concentration (μg/m³),Mass concentration (μg/m³),Mass concentration (μg/m³)
DateTimeUTC,F1_M11,P_M11,Q1_M11,Q2_M11,T1_M11,T2_M11,T3_M11,T4_M11,T5_M11,U1_M11,ZSPAN_M11,X2_M11,X0_M11,X1_M11
2022-12-14 23:00:00,,0816.7,4.97,0.00,22.5,21.2,00.0,31.3,24.3,06.4,0000.0,0001.54,0002.35,0001.40
2022-12-14 23:01:00,,0816.8,5.00,0.00,22.5,21.2,00.0,31.3,24.3,06.4,0000.0,0001.56,0002.39,0001.41
2022-12-14 23:02:00,,0817.0,5.01,0.00,22.5,21.2,00.0,31.3,24.2,06.4,0000.0,0001.55,0002.39,0001.41
2022-12-14 23:03:00,,0817.1,4.99,0.00,22.4,21.2,00.0,31.3,24.2,06.5,0000.0,0001.57,0002.45,0001.42
2022-12-14 23:04:00,,0817.2,5.05,0.00,22.5,21.2,00.0,31.3,24.2,06.5,0000.0,0001.60,0002.49,0001.44
2022-12-14 23:05:00,,0817.1,4.95,0.00,22.4,21.1,00.0,31.3,24.2,06.5,0000.0,0001.60,0002.50,0001.43
2022-12-14 23:06:00,,0817.3,5.03,0.00,22.4,21.1,00.0,31.3,24.2,06.4,0000.0,0001.61,0002.41,0001.44
2022-12-14 23:07:00,,0816.9,4.96,0.00,22.4,21.1,00.0,31.3,24.2,06.4,0000.0,0001.62,0002.42,0001.45
2022-12-14 23:08:00,,0816.9,5.03,0.00,22.4,21.1,00.0,31.3,24.2,06.4,0000.0,0001.62,0002.42,0001.45
2022-12-14 23:09:00,,0816.8,4.96,0.00,22.4,21.1,00.0,31.3,24.2,06.4,0000.0,0001.61,0002.39,0001.44
2022-12-14 23:10:00,,0816.8,5.01,0.00,22.4,21.1,00.0,31.3,24.2,06.4,0000.0,0001.61,0002.32,0001.43
2022-12-14 23:11:00,,0817.0,4.98,0.00,22.4,21.1,00.0,31.3,24.2,06.4,0000.0,0001.67,0002.45,0001.43
2022-12-14 23:12:00,,0816.8,5.00,0.00,22.4,21.0,00.0,31.3,24.2,06.4,0000.0,0001.67,0002.45,0001.43
2022-12-14 23:13:00,,0816.8,5.04,0.00,22.4,21.0,00.0,31.3,24.2,06.4,0000.0,0001.66,0002.39,0001.42
2022-12-14 23:14:00,,0816.7,4.97,0.00,22.4,21.0,00.0,31.3,24.1,06.4,0000.0,0001.65,0002.33,0001.42
2022-12-14 23:15:00,,0816.8,5.03,0.00,22.4,20.9,00.0,31.3,24.0,06.4,0000.0,0001.63,0002.29,0001.40
2022-12-14 23:16:00,,0816.8,4.95,0.00,22.3,20.9,00.0,31.3,24.0,06.4,0000.0,0001.65,0002.38,0001.39
2022-12-14 23:17:00,,0816.8,5.04,0.00,22.3,20.9,00.0,31.3,24.0,06.4,0000.0,0001.64,0002.42,0001.38
2022-12-14 23:18:00,,0816.8,4.95,0.00,22.3,20.9,00.0,31.2,23.9,06.4,0000.0,0001.63,0002.44,0001.36
2022-12-14 23:19:00,,0817.1,5.05,0.00,22.3,20.8,00.0,31.2,23.9,06.4,0000.0,0001.61,0002.36,0001.34
2022-12-14 23:20:00,,0817.2,4.96,0.00,22.3,20.8,00.0,31.2,23.9,06.4,0000.0,0001.62,0002.39,0001.33
2022-12-14 23:21:00,,0817.1,5.00,0.00,22.2,20.8,00.0,31.2,23.8,06.4,0000.0,0001.63,0002.41,0001.33
2022-12-14 23:22:00,,0817.3,5.02,0.00,22.2,20.8,00.0,31.2,23.9,06.4,0000.0,0001.57,0002.30,0001.32
2022-12-14 23:23:00,,0816.9,4.99,0.00,22.2,20.8,00.0,31.2,23.9,06.4,0000.0,0001.54,0002.25,0001.30
2022-12-14 23:24:00,,0817.0,5.04,0.00,22.2,20.7,00.0,31.2,23.9,06.4,0000.0,0001.53,0002.23,0001.29
2022-12-14 23:25:00,,0816.9,4.96,0.00,22.2,20.6,00.0,31.2,24.0,06.4,0000.0,0001.54,0002.23,0001.29
2022-12-14 23:26:00,,0816.8,5.05,0.00,22.2,20.6,00.0,31.2,24.0,06.3,0000.0,0001.54,0002.23,0001.29
2022-12-14 23:27:00,,0816.9,4.95,0.00,22.2,20.6,00.0,31.1,24.0,06.3,0000.0,0001.52,0002.14,0001.30
2022-12-14 23:28:00,,0816.9,5.04,0.00,22.2,20.5,00.0,31.1,23.9,06.3,0000.0,0001.52,0002.07,0001.32
2022-12-14 23:29:00,,0817.1,4.96,0.00,22.1,20.5,00.0,31.1,23.8,06.3,0000.0,0001.50,0002.03,0001.31
2022-12-14 23:30:00,,0817.0,5.00,0.00,22.1,20.4,00.0,31.1,23.8,06.3,0000.0,0001.51,0002.00,0001.32
2022-12-14 23:31:00,,0816.9,5.02,0.00,22.1,20.4,00.0,31.1,23.8,06.3,0000.0,0001.50,0001.97,0001.33
2022-12-14 23:32:00,,0816.9,4.98,0.00,22.1,20.4,00.0,31.1,23.8,06.4,0000.0,0001.48,0001.95,0001.33
2022-12-14 23:33:00,,0816.9,5.06,0.00,22.1,20.5,00.0,31.0,23.8,06.4,0000.0,0001.48,0001.95,0001.32
2022-12-14 23:34:00,,0817.0,4.95,0.00,22.1,21.0,00.0,31.0,24.0,06.4,0000.0,0001.52,0002.04,0001.33
2022-12-14 23:35:00,,0817.0,5.02,0.00,22.2,22.0,00.0,30.9,24.2,06.4,0000.0,0001.56,0002.12,0001.34
2022-12-14 23:36:00,,0817.0,4.99,0.00,22.3,22.3,00.0,31.0,24.4,06.3,0000.0,0001.55,0002.12,0001.34
2022-12-14 23:37:00,,0816.9,4.99,0.00,22.3,22.0,00.0,31.1,24.3,06.3,0000.0,0001.54,0002.11,0001.35
2022-12-14 23:38:00,,0817.0,5.00,0.00,22.3,21.6,00.0,31.1,24.2,06.3,0000.0,0001.53,0002.09,0001.34
2022-12-14 23:39:00,,0817.0,5.01,0.00,22.3,21.3,00.0,31.1,24.1,06.3,0000.0,0001.54,0002.11,0001.33
2022-12-14 23:40:00,,0817.0,5.00,0.00,22.3,21.1,00.0,31.1,24.1,06.3,0000.0,0001.54,0002.11,0001.34
2022-12-14 23:41:00,,0817.0,5.00,0.00,22.3,21.0,00.0,31.1,24.0,06.3,0000.0,0001.54,0002.12,0001.33
2022-12-14 23:42:00,,0817.0,5.00,0.00,22.2,20.9,00.0,31.1,24.0,06.4,0000.0,0001.54,0002.14,0001.33
2022-12-14 23:43:00,,0817.0,4.99,0.00,22.2,20.8,00.0,31.1,23.9,06.4,0000.0,0001.55,0002.13,0001.34
2022-12-14 23:44:00,,0817.0,4.99,0.00,22.2,20.8,00.0,31.1,23.9,06.4,0000.0,0001.56,0002.21,0001.35
2022-12-14 23:45:00,,0817.1,5.05,0.00,22.2,20.7,00.0,31.1,23.9,06.4,0000.0,0001.55,0003.43,0001.37
2022-12-14 23:46:00,,0817.0,4.95,0.00,22.1,20.6,00.0,31.1,23.9,06.4,0000.0,0001.53,0003.39,0001.38
2022-12-14 23:47:00,,0817.0,5.05,0.00,22.1,20.6,00.0,31.1,23.9,06.4,0000.0,0001.57,0003.57,0001.41
2022-12-14 23:48:00,,0817.0,4.95,0.00,22.1,20.5,00.0,31.0,23.8,06.4,0000.0,0001.59,0003.59,0001.42
2022-12-14 23:49:00,,0817.0,5.05,0.00,22.1,20.5,00.0,31.0,23.8,06.4,0000.0,0001.61,0003.61,0001.44
2022-12-14 23:50:00,,0817.0,4.95,0.00,22.0,20.5,00.0,31.0,23.8,06.5,0000.0,0001.62,0003.70,0001.46
2022-12-14 23:51:00,,0817.1,5.02,0.00,22.0,20.5,00.0,31.0,23.7,06.5,0000.0,0001.67,0003.82,0001.48
2022-12-14 23:52:00,,0817.1,4.99,0.00,22.0,20.4,00.0,31.0,23.7,06.5,0000.0,0001.70,0003.85,0001.51
2022-12-14 23:53:00,,0817.1,4.99,0.00,22.0,20.4,00.0,31.0,23.6,06.5,0000.0,0001.71,0003.85,0001.53
2022-12-14 23:54:00,,0817.1,5.05,0.00,22.0,20.3,00.0,31.0,23.7,06.5,0000.0,0001.73,0003.87,0001.54
2022-12-14 23:55:00,,0817.1,4.96,0.00,21.9,20.3,00.0,31.0,23.7,06.5,0000.0,0001.76,0003.93,0001.56
2022-12-14 23:56:00,,0817.1,5.04,0.00,21.9,20.3,00.0,30.9,23.6,06.5,0000.0,0001.76,0002.84,0001.55
2022-12-14 23:57:00,,0817.1,4.95,0.00,21.9,20.3,00.0,30.9,23.6,06.5,0000.0,0001.77,0002.71,0001.55
2022-12-14 23:58:00,,0817.1,5.05,0.00,21.9,20.4,00.0,30.9,23.5,06.5,0000.0,0001.75,0002.55,0001.54
2022-12-14 23:59:00,,0817.1,4.96,0.00,21.9,21.1,00.0,30.8,23.8,06.4,0000.0,0001.75,0002.56,0001.54
